Location: Boiro
(42.6475°N, 8.8834°W)
Time: 02:20:24
(UTC+01:00)

Explorer 7 - Pass Details

Date: 04 December 2021
Orbit: 483 x 674 km, 50.3° (Epoch: 23 January)

Event Time Altitude Azimuth Distance (km) Brightness Sun altitude
Rises 06:10:26 0° 209° (SSW) 2,877 - -28.4°
Reaches altitude 10° 06:13:00 10° 198° (SSW) 1,942 - -28.0°
Exits shadow 06:15:57 27° 161° (SSE) 1,135 8.6 -27.4°
Maximum altitude 06:16:51 29° 138° (SE) 1,062 8.6 -27.3°
Drops below altitude 10° 06:20:32 10° 77° (ENE) 1,843 10.4 -26.6°
Sets 06:22:54 0° 66° (ENE) 2,706 11.3 -26.2°
